Probability
0 0 0 0 0 0 0 0 0 0 0 0 0 0 0 0 0 0 0 0 0 0 0 0 0 0 0 0 0 0 0 0 0 0 0 0 0 0
0 0 0 0 0 0 0 0 0 0 0 0 0 0 0 0 0 0 0 0 0 0 0 0 0 0 0 0 0 0 0 0 0 0 0 0 0 0
0 0 0 0 0 0 0 0 0 0 0 0 0 0 0 0 0 0 0 0 0 0 0 0 0 0 0 0 0 0 0 0 0 0 0 0 0 0
0 0 0 0 0 0 0 0 0 0 0 0 0 0 0 0 0 0 0 0 0 0 0 0 0 0 0 0 0 0 0 0 0 0 0 0 0 0
0 0 0 0 0 0 0 0 0 0 0 0 0 0 0 0 0 0 0 0 0 0 0 0 0 0 0 0 0 0 0 0 0 0 0 0 0 0
0 0 0 0 0 0 0 0 0 0 0 0 0 0 0 0 0 0 0 0 0 0 0 0 0 0 0 0 0 0 0 0 0 0 0 0 0 0
0 0 0 0 0 0 0 0 0 0 0 0 0 0 0 0 0 0 0 0 0 0 0 0 0 0 0 0 0 0 0 0 0 0 0 0 0 0
0 0 0 0 0 0 0 0 0 0 0 0 0 0 0 0 0 0 0 0 0 0 0 0 0 0 0 0 0 0 0 0 0 0 0 0 0 0
0 0 0 0 0 0 0 0 0 0 0 0 0 0 0 0 0 0 0 0 0 0 0 0 0 0 0 0 0 0 0 0 0 0 0 0 0 0
0 0 0 0 0 0 0 0 0 0 0 0 0 0 0 0 0 0 0 0 0 0 0 0 0 0 0 0 0 0 0 0 0 0 0 0 0 0
0 0 0 0 0 0 0 0 0 0 0 0 0 0 0 0 0 0 0 0 0 0 0 0 0 0 0 0 0 0 0 0 0 0 0 0 0 0
0 0 0 0 0 0 0 0 0 0 0 0 0 0 0 0 0 0 0 0 0 0 0 0 0 0 0 0 0 0 0 0 0 0 0 0 0 0
0 0 0 0 0 0 0 0 0 0 0 0 0 0 0 0 0 0 0 0 0 0 0 0 0 0 0 0 0 0 0 0 0 0 0 0 0 0
0 0 0 0 0 0 0 0 0 0 0 0 0 0 0 0 0 0 0 0 0 0 0 0 0 0 0 0 0 0 0 0 0 0 0 0 0 0
0 0 0 0 0 0 0 0 0 0 0 0 0 0 0 0 0 0 0 0 0 0 0 0 0 0 0 0 0 0 0 0 0 0 0 0 0 0
0 0 0 0 0 0 0 0 0 0 0 0 0 0 0 0 0 0 0 0 0 0 0 0 0 0 0 0 0 0 0 0 0 0 0 0 0 0
0 0 0 0 0 0 0 0 0 0 0 0 0 0 0 0 0 0 0 0 0 0 0 0 0 0 0 0 0 0 0 0 0 0 0 0 0 0
0 0 0 0 0 0 0 0 0 0 0 0 0 0 0 0 0 0 0 0 0 0 0 0 0 0 0 0 0 0 0 0 0 0 0 0 0 0
0 0 0 0 0 0 0 0 0 0 0 0 0 0 0 0 0 0 0 0 0 0 0 0 0 0 0 0 0 0 0 0 0 0 0 0 0 0
0 0 0 0 0 0 0 0 0 0 0 0 0 0 0 0 0 0 0 0 0 0 0 0 0 0 0 0 0 0 0 0 0 0 0 0 0 0
0 0 0 0 0 0 0 0 0 0 0 0 0 0 0 0 0 0 0 0 0 0 0 0 0 0 0 0 0 0 0 0 0 0 0 0 0 0
0 0 0 0 0 0 0 0 0 0 0 0 0 0 0 0 0 0 0 0 0 0 0 0 0 0 0 0 0 0 0 0 0 0 0 0 0 0
0 0 0 0 0 0 0 0 0 0 0 0 0 0 0 0 0 0 0 0 0 0 0 0 0 0 0 0 0 0 0 0 0 0 0 0 0 0
Wind_Speed
4 4 3 2 2 2 1 1 1 3 4 3 2 2 4 5 13 9 11 21 25 25 26 27 27 27 27 28 28 28 28 27 27 26 26 26 26 26
3 4 3 2 2 1 1 1 1 2 4 4 3 3 5 8 14 10 11 23 22 24 26 26 26 27 27 27 27 27 27 27 27 27 27 26 26 26
3 3 3 2 2 1 1 1 1 1 5 6 3 4 5 7 10 8 9 9 10 22 25 26 27 27 27 27 27 27 27 27 28 28 28 27 26 26
5 4 4 3 3 2 2 2 2 3 4 8 6 4 6 8 10 11 10 10 9 20 24 27 27 27 27 28 28 28 28 27 27 27 26 26 26 25
5 5 5 4 4 3 4 3 3 4 4 6 9 6 6 7 11 11 9 8 10 15 22 23 25 27 28 29 29 28 28 27 27 26 25 25 25 25
6 6 5 6 5 5 4 5 4 5 5 7 9 9 8 8 8 10 12 8 10 12 16 18 22 25 27 29 29 28 27 27 26 26 25 25 25 25
6 6 6 8 9 7 5 5 5 4 4 5 8 9 9 9 9 10 13 13 12 9 9 10 12 12 14 19 23 25 27 27 27 26 26 25 23 23
8 7 7 7 10 13 13 12 10 6 5 5 8 10 11 10 10 11 13 14 12 6 11 14 12 12 11 10 21 28 28 28 27 26 25 23 22 22
8 7 6 6 7 7 10 13 12 14 14 9 10 11 11 11 13 15 13 14 15 14 13 15 11 12 11 14 26 29 29 28 26 25 24 24 23 23
9 8 8 7 8 8 7 8 9 9 11 9 9 10 10 11 11 12 12 12 14 11 11 12 12 12 12 12 23 27 25 25 25 26 26 25 25 25
9 9 9 9 13 16 10 9 10 9 13 16 16 15 18 18 15 7 6 7 10 10 7 7 8 12 12 12 13 21 24 27 27 27 26 25 25 23
7 9 12 15 16 17 11 9 11 9 7 7 8 10 10 11 13 8 5 6 7 8 5 6 9 11 10 7 9 12 15 21 26 26 26 25 24 14
7 8 9 17 19 20 17 11 14 11 5 4 4 5 5 6 6 6 6 6 8 9 8 9 10 10 10 11 12 12 12 12 13 16 20 23 23 18
9 7 8 17 19 20 16 16 19 13 2 2 3 4 5 5 5 7 8 9 10 13 13 13 11 11 12 14 13 11 12 12 12 13 11 17 19 21
8 14 16 18 18 15 18 20 12 4 3 3 5 5 5 5 6 7 8 9 11 12 11 12 11 11 11 13 13 14 14 13 11 9 10 12 11 11
9 10 16 19 17 13 9 10 5 4 5 5 5 5 4 4 5 5 6 7 8 8 7 9 11 12 12 13 13 14 13 10 10 12 12 12 11 10
5 3 4 5 6 6 5 5 4 4 5 4 4 4 5 5 5 5 4 5 6 9 11 8 8 9 12 13 13 12 11 11 11 12 12 13 11 9
8 5 6 7 8 8 8 7 6 6 6 5 4 4 5 5 5 5 5 5 8 9 10 10 11 11 7 6 10 9 9 9 11 12 11 11 13 10
6 5 6 6 7 7 7 7 7 6 5 5 5 4 4 4 4 5 5 6 7 8 9 8 8 9 11 12 8 7 10 12 12 11 8 9 11 12
3 4 4 4 5 5 6 6 6 5 5 5 5 4 4 3 4 5 5 6 7 8 9 7 6 7 9 10 10 11 16 13 10 11 10 9 9 12
3 3 3 3 4 4 5 5 5 5 4 4 4 4 4 3 4 5 5 7 7 7 8 9 9 12 10 8 9 9 8 14 16 11 10 9 7 5
3 3 4 4 4 4 4 4 4 4 4 4 4 4 4 4 5 5 5 5 6 7 9 10 10 9 5 6 9 11 10 10 13 16 11 10 7 7
3 3 4 4 4 3 3 4 5 5 4 4 4 4 4 4 4 4 5 5 6 7 8 8 7 5 6 6 8 9 10 10 8 7 7 14 18 14
Wind_Direction
111 109 108 102 95 93 104 144 208 298 292 281 296 344 356 335 330 333 328 323 328 328 327 325 323 322 322 321 320 318 317 316 316 314 312 309 306 303
129 127 125 125 118 115 116 121 165 211 275 277 263 308 327 324 324 324 315 322 322 322 323 321 321 321 320 319 318 318 317 316 318 318 317 314 311 307
153 155 161 157 157 163 164 175 195 202 268 284 263 305 305 315 318 309 308 304 309 316 316 317 318 318 317 316 316 316 315 314 313 311 309 307 307 307
181 181 191 184 188 191 191 206 221 224 249 288 297 309 309 312 309 309 310 310 304 308 312 314 313 313 313 313 313 313 312 312 310 307 305 303 303 304
192 197 202 198 211 206 206 216 225 241 237 271 292 301 303 308 310 307 301 295 301 307 310 309 310 310 311 310 310 309 309 308 305 304 303 302 302 302
205 208 209 209 216 213 219 222 225 237 246 267 285 297 302 304 305 315 315 311 308 307 303 308 309 310 308 306 306 306 304 303 303 304 303 302 300 298
217 220 221 223 227 225 226 221 221 233 247 266 284 294 300 313 316 316 311 312 304 294 304 308 307 302 301 301 303 301 302 304 305 304 302 301 300 300
223 225 227 229 239 247 251 251 243 236 236 252 281 288 297 306 310 310 311 312 312 314 316 309 304 301 300 295 300 305 306 307 305 304 302 302 302 303
221 223 229 225 221 234 251 260 263 265 261 266 276 282 294 303 307 308 308 307 302 307 308 301 303 301 301 302 307 307 307 307 307 309 309 307 305 303
222 221 227 231 224 228 235 243 244 248 256 264 267 276 284 293 298 302 306 303 296 294 300 296 301 303 308 304 303 303 308 313 315 314 311 308 306 303
227 224 227 233 240 244 243 243 250 251 260 263 268 279 290 300 305 306 305 305 302 305 304 286 306 316 305 294 299 309 314 313 310 308 308 308 307 305
232 232 233 236 242 245 240 237 249 253 246 256 270 285 294 297 299 293 286 290 297 301 309 313 309 320 308 292 305 308 306 305 307 308 308 308 307 305
236 237 236 244 248 248 245 238 246 254 230 226 250 273 282 281 282 282 283 283 285 280 294 308 301 304 292 298 303 300 298 303 307 305 305 306 306 305
238 239 239 247 250 251 251 250 256 258 205 219 259 272 277 278 283 290 290 285 278 281 289 294 291 296 297 295 298 300 303 302 301 299 299 305 306 305
240 245 248 251 253 254 254 254 253 229 206 234 254 265 266 276 289 293 292 288 284 281 283 285 288 292 290 291 292 295 302 303 299 301 305 304 301 300
256 256 258 259 256 249 247 252 236 206 210 232 249 262 274 280 283 288 296 305 303 294 279 283 288 292 291 287 285 287 291 290 299 303 303 300 296 290
251 257 246 244 242 242 238 231 224 216 223 228 236 253 268 278 283 292 288 298 290 300 309 310 299 291 281 278 279 279 285 290 294 302 306 304 300 295
241 241 245 245 245 242 237 233 226 227 227 225 226 236 254 269 282 288 288 288 292 297 302 310 316 316 304 276 262 275 287 296 303 304 302 303 304 306
246 249 251 252 253 250 243 236 232 225 218 218 225 230 240 257 271 281 287 290 291 294 298 303 309 314 317 315 294 289 305 305 303 302 302 302 301 305
255 261 264 266 269 266 256 247 240 227 217 218 221 226 228 241 260 269 276 281 291 298 301 300 299 304 307 300 295 296 301 300 305 308 309 304 293 300
276 278 272 270 268 266 262 253 244 234 223 213 219 223 223 228 249 260 270 280 286 292 299 302 301 304 297 286 288 295 299 311 317 311 312 311 308 310
278 278 278 273 272 267 264 258 250 241 230 225 226 227 224 227 246 259 266 275 281 286 291 296 302 307 299 294 300 302 307 314 320 325 332 341 333 327
280 281 280 277 269 264 260 255 250 247 238 232 230 228 223 230 240 252 263 267 275 286 295 301 307 306 300 296 299 304 307 315 319 327 325 341 345 344